Date String (YYYY-MM-DD hh:mm:ss) UTC,Instrument flags,Ambient pressure (hPa),Sample flow (lpm),Bypass flow (lpm),Sample temperature (°C),Ambient temperature (°C),ASC tube jacket temperature (°C),LED temperature (°C),Box temperature (°C),Sample RH (%),Span deviation,Mass concentration (μg/m³),Mass concentration (μg/m³),Mass concentration (μg/m³)
DateTimeUTC,F1_M11,P_M11,Q1_M11,Q2_M11,T1_M11,T2_M11,T3_M11,T4_M11,T5_M11,U1_M11,ZSPAN_M11,X0_M11,X2_M11,X1_M11
2022-08-18 02:00:00,,0831.0,5.00,0.00,29.6,27.8,00.0,38.2,31.4,17.1,0000.0,0008.46,0004.21,0003.83
2022-08-18 02:01:00,,0831.1,4.99,0.00,29.5,27.3,00.0,38.2,31.2,17.3,0000.0,0007.95,0004.22,0003.84
2022-08-18 02:02:00,,0831.1,5.01,0.00,29.5,27.1,00.0,38.2,31.2,17.5,0000.0,0008.01,0004.22,0003.86
2022-08-18 02:03:00,,0831.1,5.00,0.00,29.4,27.2,00.0,38.2,31.1,18.0,0000.0,0008.43,0004.22,0003.86
2022-08-18 02:04:00,,0831.0,4.99,0.00,29.4,27.3,00.0,38.2,31.2,18.4,0000.0,0008.14,0004.22,0003.86
2022-08-18 02:05:00,,0831.1,5.01,0.00,29.4,27.5,00.0,38.2,31.2,19.0,0000.0,0009.19,0004.24,0003.87
2022-08-18 02:06:00,,0831.1,5.00,0.00,29.4,27.7,00.0,38.2,31.3,19.3,0000.0,0009.35,0004.23,0003.88
2022-08-18 02:07:00,,0831.1,5.00,0.00,29.4,27.9,00.0,38.2,31.3,19.4,0000.0,0010.05,0004.25,0003.89
2022-08-18 02:08:00,,0831.0,4.99,0.00,29.4,28.1,00.0,38.2,31.4,19.4,0000.0,0011.01,0004.27,0003.89
2022-08-18 02:09:00,,0831.0,5.00,0.00,29.5,28.2,00.0,38.2,31.5,19.3,0000.0,0011.38,0004.27,0003.89
2022-08-18 02:10:00,,0831.0,4.99,0.00,29.5,28.4,00.0,38.2,31.5,19.2,0000.0,0011.35,0004.27,0003.90
2022-08-18 02:11:00,,0831.1,5.01,0.00,29.6,28.5,00.0,38.2,31.6,19.4,0000.0,0011.36,0004.28,0003.90
2022-08-18 02:12:00,,0831.0,4.99,0.00,29.6,28.6,00.0,38.2,31.6,19.5,0000.0,0011.32,0004.28,0003.90
2022-08-18 02:13:00,,0831.0,5.01,0.00,29.6,28.7,00.0,38.3,31.7,19.7,0000.0,0011.20,0004.28,0003.91
2022-08-18 02:14:00,,0831.0,4.99,0.00,29.7,28.4,00.0,38.3,31.6,19.9,0000.0,0010.79,0004.30,0003.91
2022-08-18 02:15:00,,0831.0,4.99,0.00,29.6,27.7,00.0,38.2,31.3,20.2,0000.0,0011.17,0004.32,0003.92
2022-08-18 02:16:00,,0831.0,5.00,0.00,29.5,27.1,00.0,38.2,31.2,20.3,0000.0,0010.18,0004.32,0003.93
2022-08-18 02:17:00,,0831.0,4.99,0.00,29.4,27.0,00.0,38.1,31.1,20.3,0000.0,0010.09,0004.35,0003.93
2022-08-18 02:18:00,,0831.0,5.00,0.00,29.3,27.0,00.0,38.1,31.0,20.5,0000.0,0009.55,0004.36,0003.94
2022-08-18 02:19:00,,0831.0,5.01,0.00,29.3,27.2,00.0,38.1,31.0,20.6,0000.0,0008.64,0004.41,0003.97
2022-08-18 02:20:00,,0831.0,4.99,0.00,29.3,27.4,00.0,38.1,31.1,20.6,0000.0,0008.20,0004.41,0003.98
2022-08-18 02:21:00,,0831.0,4.99,0.00,29.3,27.6,00.0,38.1,31.2,20.5,0000.0,0008.39,0004.45,0003.99
2022-08-18 02:22:00,,0831.0,5.00,0.00,29.3,27.8,00.0,38.1,31.3,20.5,0000.0,0009.12,0004.46,0004.01
2022-08-18 02:23:00,,0831.0,4.99,0.00,29.4,28.0,00.0,38.1,31.3,20.5,0000.0,0009.18,0004.45,0004.02
2022-08-18 02:24:00,,0831.0,5.00,0.00,29.4,28.1,00.0,38.1,31.4,20.5,0000.0,0010.02,0004.47,0004.03
2022-08-18 02:25:00,,0831.0,4.99,0.00,29.5,28.2,00.0,38.2,31.4,20.5,0000.0,0010.05,0004.48,0004.04
2022-08-18 02:26:00,,0831.0,5.00,0.00,29.5,28.4,00.0,38.2,31.5,20.4,0000.0,0009.39,0004.46,0004.05
2022-08-18 02:27:00,,0831.0,5.00,0.00,29.5,28.5,00.0,38.2,31.5,20.5,0000.0,0009.16,0004.44,0004.05
2022-08-18 02:28:00,,0831.0,5.00,0.00,29.6,28.6,00.0,38.2,31.6,20.6,0000.0,0009.45,0004.44,0004.06
2022-08-18 02:29:00,,0831.1,4.99,0.00,29.6,28.7,00.0,38.2,31.6,20.5,0000.0,0009.78,0004.45,0004.07
2022-08-18 02:30:00,,0831.1,5.00,0.00,29.6,28.7,00.0,38.3,31.7,20.6,0000.0,0009.65,0004.41,0004.07
2022-08-18 02:31:00,,0831.0,5.01,0.00,29.6,28.1,00.0,38.2,31.4,20.6,0000.0,0009.68,0004.43,0004.09
2022-08-18 02:32:00,,0831.0,4.99,0.00,29.6,27.6,00.0,38.2,31.3,20.6,0000.0,0010.44,0004.47,0004.11
2022-08-18 02:33:00,,0831.0,5.01,0.00,29.5,27.5,00.0,38.2,31.3,20.8,0000.0,0009.77,0004.50,0004.13
2022-08-18 02:34:00,,0831.0,4.99,0.00,29.5,27.5,00.0,38.2,31.2,20.8,0000.0,0009.71,0004.53,0004.15
2022-08-18 02:35:00,,0831.0,5.00,0.00,29.5,27.7,00.0,38.2,31.3,20.8,0000.0,0008.96,0004.55,0004.16
2022-08-18 02:36:00,,0831.0,5.01,0.00,29.5,27.8,00.0,38.2,31.3,20.8,0000.0,0008.93,0004.57,0004.17
2022-08-18 02:37:00,,0831.1,5.01,0.00,29.5,28.0,00.0,38.2,31.4,20.8,0000.0,0009.04,0004.60,0004.19
2022-08-18 02:38:00,,0831.2,5.00,0.00,29.5,28.1,00.0,38.2,31.4,20.8,0000.0,0009.72,0004.62,0004.20
2022-08-18 02:39:00,,0831.2,5.00,0.00,29.5,28.2,00.0,38.2,31.5,20.7,0000.0,0009.66,0004.60,0004.21
2022-08-18 02:40:00,,0831.2,5.00,0.00,29.6,28.4,00.0,38.2,31.5,20.7,0000.0,0009.17,0004.61,0004.21
2022-08-18 02:41:00,,0831.2,4.99,0.00,29.6,28.5,00.0,38.3,31.6,20.6,0000.0,0009.27,0004.63,0004.21
2022-08-18 02:42:00,,0831.2,5.01,0.00,29.6,28.6,00.0,38.3,31.7,20.5,0000.0,0009.61,0004.60,0004.19
2022-08-18 02:43:00,,0831.2,5.00,0.00,29.7,28.7,00.0,38.3,31.7,20.5,0000.0,0008.95,0004.55,0004.18
2022-08-18 02:44:00,,0831.2,5.00,0.00,29.7,28.4,00.0,38.3,31.6,20.4,0000.0,0009.01,0004.53,0004.16
2022-08-18 02:45:00,,0831.2,4.99,0.00,29.6,27.8,00.0,38.3,31.4,20.5,0000.0,0009.34,0004.53,0004.15
2022-08-18 02:46:00,,0831.2,5.01,0.00,29.6,27.5,00.0,38.3,31.3,20.6,0000.0,0010.03,0004.51,0004.14
2022-08-18 02:47:00,,0831.2,4.99,0.00,29.5,27.5,00.0,38.2,31.3,20.7,0000.0,0010.52,0004.51,0004.13
2022-08-18 02:48:00,,0831.2,5.01,0.00,29.5,27.6,00.0,38.2,31.3,20.8,0000.0,0010.46,0004.51,0004.12
2022-08-18 02:49:00,,0831.2,5.00,0.00,29.5,27.8,00.0,38.2,31.4,20.6,0000.0,0009.90,0004.51,0004.11
2022-08-18 02:50:00,,0831.2,5.00,0.00,29.5,27.9,00.0,38.2,31.4,20.6,0000.0,0009.90,0004.52,0004.10
2022-08-18 02:51:00,,0831.2,4.99,0.00,29.5,28.0,00.0,38.2,31.4,20.6,0000.0,0010.01,0004.51,0004.10
2022-08-18 02:52:00,,0831.2,4.99,0.00,29.5,28.2,00.0,38.3,31.5,20.5,0000.0,0009.96,0004.51,0004.09
2022-08-18 02:53:00,,0831.2,5.00,0.00,29.6,28.3,00.0,38.3,31.5,20.5,0000.0,0009.70,0004.54,0004.09
2022-08-18 02:54:00,,0831.3,5.01,0.00,29.6,28.4,00.0,38.3,31.6,20.4,0000.0,0009.62,0004.53,0004.09
2022-08-18 02:55:00,,0831.3,5.01,0.00,29.6,28.5,00.0,38.3,31.6,20.4,0000.0,0009.39,0004.51,0004.09
2022-08-18 02:56:00,,0831.3,4.99,0.00,29.7,28.6,00.0,38.3,31.7,20.5,0000.0,0009.11,0004.50,0004.08
2022-08-18 02:57:00,,0831.3,5.01,0.00,29.7,28.7,00.0,38.3,31.7,20.4,0000.0,0008.46,0004.51,0004.08
2022-08-18 02:58:00,,0831.3,5.00,0.00,29.7,28.3,00.0,38.3,31.5,20.4,0000.0,0008.63,0004.51,0004.08
2022-08-18 02:59:00,,0831.4,4.99,0.00,29.6,27.7,00.0,38.3,31.4,20.3,0000.0,0008.71,0004.50,0004.08
